Location: Brantley
(31.5822°N, 86.2569°W)
Time: 21:56:29
(UTC+00:00)

A-11 Canister half - All Passes

Search period start: 18 February 2026 00:00
Search period end: 28 February 2026 00:00
Orbit: 1525 x 1682 km, 47.3° (Epoch: 18 February)

Date Brightness Start Highest point End Pass type
(mag) Time Alt. Az. Time Alt. Az. Time Alt. Az.
18 Feb - 01:28:27 10° NW 01:36:24 30° N 01:44:22 10° ENE visible
18 Feb - 03:34:12 10° NW 03:43:17 53° NNE 03:52:31 10° ESE visible
18 Feb - 05:39:18 10° WNW 05:48:19 54° SW 05:57:35 10° SSE night (unlit)
18 Feb - 18:51:11 10° SSE 18:57:28 20° SE 19:03:38 10° E daylight
18 Feb - 20:51:58 10° SW 21:01:29 80° SE 21:10:49 10° NE daylight
18 Feb - 22:58:25 10° W 23:07:08 41° NNW 23:15:47 10° NE daylight
19 Feb - 01:06:31 10° NW 01:14:26 30° N 01:22:23 10° ENE visible
19 Feb - 03:12:23 10° NW 03:21:24 51° NNE 03:30:33 10° ESE visible
19 Feb - 05:17:26 10° WNW 05:26:30 57° SW 05:35:50 10° SSE visible
19 Feb - 07:28:20 10° WSW 07:30:15 11° WSW 07:32:11 10° SW night (unlit)
19 Feb - 18:29:48 10° SSE 18:35:41 18° SE 18:41:29 10° E daylight
19 Feb - 20:30:09 10° SW 20:39:40 76° SE 20:48:58 10° NE daylight
19 Feb - 22:36:26 10° W 22:45:13 42° NNW 22:53:56 10° NE daylight
20 Feb - 00:44:34 10° NW 00:52:29 30° N 01:00:24 10° ENE visible
20 Feb - 02:50:33 10° NW 02:59:30 49° NNE 03:08:34 10° E visible
20 Feb - 04:55:34 10° WNW 05:04:42 60° SW 05:14:03 10° SSE visible
20 Feb - 07:05:19 10° WSW 07:08:28 12° WSW 07:11:40 10° SW night (unlit)
20 Feb - 18:08:28 10° SSE 18:13:55 17° SE 18:19:16 10° E daylight
20 Feb - 20:08:20 10° SW 20:17:51 72° SE 20:27:08 10° NE daylight
20 Feb - 22:14:27 10° W 22:23:19 44° NNW 22:32:05 10° NE daylight
21 Feb - 00:22:37 10° WNW 00:30:31 30° N 00:38:26 10° ENE visible
21 Feb - 02:28:42 10° NW 02:37:37 47° NNE 02:46:37 10° E visible
21 Feb - 04:33:43 10° WNW 04:42:53 64° SW 04:52:17 10° SE visible
21 Feb - 06:42:43 10° W 06:46:42 13° WSW 06:50:45 10° SSW night (unlit)
21 Feb - 17:47:12 10° SSE 17:52:08 15° ESE 17:56:59 10° E daylight
21 Feb - 19:46:31 10° SW 19:56:02 68° SE 20:05:17 10° NE daylight
21 Feb - 21:52:27 10° W 22:01:25 45° NNW 22:10:15 10° NE daylight
22 Feb - 00:00:40 10° WNW 00:08:34 30° N 00:16:28 10° ENE visible
22 Feb - 02:06:52 10° NW 02:15:43 45° NNE 02:24:38 10° E visible
22 Feb - 04:11:51 10° NW 04:21:04 68° SW 04:30:30 10° SE visible
22 Feb - 06:20:18 10° W 06:24:56 15° WSW 06:29:38 10° SSW night (unlit)
22 Feb - 17:26:03 10° SSE 17:30:21 14° ESE 17:34:36 10° E daylight
22 Feb - 19:24:44 10° SW 19:34:12 65° SE 19:43:26 10° ENE daylight
22 Feb - 21:30:28 10° W 21:39:30 47° NNW 21:48:24 10° NE daylight
22 Feb - 23:38:41 10° WNW 23:46:36 30° N 23:54:31 10° ENE daylight
23 Feb - 01:45:02 10° NW 01:53:49 44° NNE 02:02:39 10° E visible
23 Feb - 03:50:00 10° NW 03:59:15 71° SW 04:08:42 10° SE visible
23 Feb - 05:57:59 10° W 06:03:09 16° SW 06:08:24 10° SSW night (unlit)
23 Feb - 17:05:03 10° SE 17:08:35 12° ESE 17:12:04 10° E daylight
23 Feb - 19:02:56 10° SSW 19:12:24 61° SE 19:21:34 10° ENE daylight
23 Feb - 21:08:30 10° W 21:17:37 49° NNW 21:26:35 10° NE daylight
23 Feb - 23:16:42 10° WNW 23:24:39 30° N 23:32:33 10° ENE daylight
24 Feb - 01:23:11 10° NW 01:31:54 42° NNE 01:40:40 10° E visible
24 Feb - 03:28:09 10° NW 03:37:26 75° SW 03:46:53 10° SE visible
24 Feb - 05:35:46 10° W 05:41:22 18° SW 05:47:06 10° SSW night (unlit)
24 Feb - 16:44:20 10° SE 16:46:48 11° ESE 16:49:14 10° ESE daylight
24 Feb - 18:41:10 10° SSW 18:50:34 58° SE 18:59:42 10° ENE daylight
24 Feb - 20:46:31 10° WSW 20:55:43 51° NNW 21:04:45 10° NE daylight
24 Feb - 22:54:43 10° WNW 23:02:42 30° N 23:10:36 10° NE daylight
25 Feb - 01:01:20 10° NW 01:09:59 41° NNE 01:18:41 10° E visible
25 Feb - 03:06:18 10° NW 03:15:37 79° SW 03:25:04 10° SE visible
25 Feb - 05:13:35 10° W 05:19:36 19° SW 05:25:43 10° SSW visible
25 Feb - 18:19:24 10° SSW 18:28:45 55° SE 18:37:50 10° ENE daylight
25 Feb - 20:24:33 10° WSW 20:33:50 53° NNW 20:42:55 10° NE daylight
25 Feb - 22:32:43 10° WNW 22:40:44 30° N 22:48:41 10° NE daylight
26 Feb - 00:39:28 10° NW 00:48:05 40° NNE 00:56:41 10° E visible
26 Feb - 02:44:28 10° NW 02:53:47 83° SW 03:03:15 10° SE visible
26 Feb - 04:51:27 10° W 04:57:49 21° SW 05:04:18 10° S visible
26 Feb - 17:57:39 10° SSW 18:06:57 51° SE 18:15:58 10° ENE daylight
26 Feb - 20:02:34 10° WSW 20:11:56 55° NNW 20:21:06 10° NE daylight
26 Feb - 22:10:43 10° WNW 22:18:47 31° N 22:26:45 10° NE daylight
27 Feb - 00:17:36 10° NW 00:26:10 39° NNE 00:34:42 10° E visible
27 Feb - 02:22:37 10° NW 02:31:57 87° SW 02:41:24 10° SE visible
27 Feb - 04:29:22 10° W 04:36:03 22° SW 04:42:51 10° S visible
27 Feb - 17:35:55 10° SSW 17:45:08 49° SE 17:54:04 10° ENE daylight
27 Feb - 19:40:37 10° WSW 19:50:03 58° NNW 19:59:16 10° NE daylight
27 Feb - 21:48:43 10° WNW 21:56:50 31° N 22:04:50 10° NE daylight
